[[{"header":{"parameterUnit":"m.s-1","parameterCategory":1,"la1":30.2991,"la2":30.254,"lo1":-89.0895,"lo2":-89.0444,"dx":0.0017,"dy":0.0017,"nx":28,"ny":28,"refTime":"2023-01-13T09:00:00:Z","depth":0,"parameterNumber":2,"parameterNumberName":"U-component_of_WINDS"},"data":[0,0,0,0,0,0,0,0,0,0,0,0,0,0,0,0,0,0,0,0,0,0,0,0,0,0,0,0,0,0,0,0,0,0,0,0,0,0,0,0,0,0,0,0,0,0,0,0,0,0,0,0,0,0,0,0,0,0,2.4809,2.4809,0,2.4817,2.4817,2.4817,2.4798,2.4797,2.4797,2.4796,2.4803,2.4804,2.4804,0,0,0,0,0,0,0,0,0,0,0,0,0,2.4778,2.4779,2.4809,2.4809,2.4809,2.4817,2.4817,2.4817,2.4798,2.4797,2.4796,2.4796,2.4803,2.4804,2.4805,0,0,0,0,0,0,0,0,0,0,0,0,0,2.4789,2.4779,2.4809,2.4801,2.48,2.4817,2.4817,2.4817,2.4798,2.4797,2.4796,2.4795,2.4802,2.4804,2.4805,2.483,0,0,2.4808,2.4809,0,0,0,0,0,0,0,0,2.4789,2.479,2.4802,2.4801,2.48,2.4806,2.4809,2.4821,2.4798,2.4799,2.4796,2.4795,2.4804,2.4805,2.4809,2.483,2.4831,2.4808,2.4809,2.4809,2.481,0,0,0,0,0,0,0,2.4788,2.479,2.4812,2.4802,2.4801,2.4797,2.4797,2.4811,2.4807,2.4799,2.4797,2.4798,2.4804,2.4808,2.4809,2.4831,2.4808,2.4809,2.481,2.481,2.4876,2.4877,0,0,0,0,0,0,2.4788,2.479,2.4812,2.4812,2.4792,2.4798,2.4799,2.4805,2.4806,2.4806,2.4799,2.4798,2.4806,2.4808,2.4809,2.484,2.4809,2.481,2.4811,2.4875,2.4876,2.4877,0,0,0,0,0,0,2.4788,2.479,2.4812,2.4801,2.4803,2.48,2.4807,2.4805,2.4809,2.4807,2.4806,2.4804,2.4806,2.4807,2.4826,2.484,2.4811,2.4812,2.4873,2.4875,2.4876,2.4901,0,0,0,0,0,0,2.4787,2.479,2.4799,2.4801,2.4804,2.4828,2.4807,2.4806,2.4811,2.4809,2.4811,2.481,2.4805,2.4824,2.4827,2.4841,2.4813,2.4872,2.4874,2.4876,2.4899,2.4903,2.4907,0,0,0,0,0,2.4786,2.4805,2.48,2.4803,2.4815,2.4828,2.483,2.4824,2.4813,2.4822,2.4821,2.481,2.4838,2.4826,2.4829,2.4843,2.4871,2.4874,2.4876,2.4897,2.4902,2.4907,0,0,0,0,0,0,2.4804,2.4805,2.4799,2.482,2.4824,2.4825,2.4836,2.4829,2.4836,2.4834,2.4826,2.4826,2.4846,2.4847,2.4833,2.4869,2.4853,2.4856,2.4868,2.4873,2.4877,2.4876,2.4814,0,0,0,0,0,2.4811,2.4822,2.4822,2.484,2.4843,2.484,2.4845,2.484,2.4844,2.4846,2.4846,2.485,2.486,2.4867,2.4876,2.4899,2.49,2.4911,2.4915,2.4919,2.4921,2.4935,2.494,2.4885,2.4885,2.4885,0,0,2.4824,2.4826,2.4833,2.4844,2.4847,2.4859,2.4841,2.4854,2.4863,2.4848,2.4865,2.4866,2.487,2.4892,2.4901,2.4893,2.4937,2.4922,2.4924,2.4925,2.4938,2.4943,2.4948,2.4886,2.4886,2.4886,0,0,2.4854,2.4857,2.4873,2.4877,2.4882,2.488,2.4884,2.4887,2.4887,2.4905,2.4894,2.4905,2.4922,2.4926,2.493,2.4966,2.4957,2.4969,2.499,2.5004,2.5008,2.5012,2.5025,2.503,2.4972,2.4972,2.4972,0,2.487,2.4887,2.4882,2.4896,2.4902,2.4891,2.4907,2.4911,2.4919,2.4923,2.4914,2.4937,2.4939,2.4962,2.4971,2.4975,2.4979,2.4968,2.5008,2.5012,2.5015,2.5028,2.5032,2.4974,2.4973,2.4973,2.4973,0,2.4907,2.4919,2.4932,2.494,2.4948,2.4963,2.4961,2.4969,2.4964,2.4964,2.4983,2.4986,2.4996,2.5001,2.4996,2.5024,2.5019,2.5009,2.4992,2.5022,2.5034,2.5038,2.4976,2.4975,2.4975,2.4974,0,0,2.4946,2.4954,2.4959,2.4963,2.497,2.4979,2.4995,2.5006,2.5013,2.502,2.5033,2.505,2.5041,2.5046,2.5042,2.5055,2.5084,2.5044,2.5044,2.5051,2.5116,2.5123,2.5128,2.5079,2.508,2.508,2.5116,0,2.4976,2.5003,2.5,2.5026,2.5038,2.5029,2.5043,2.5049,2.505,2.5061,2.5062,2.5074,2.5062,2.5065,2.5077,2.5078,2.5097,2.5075,2.5091,2.5092,2.5089,2.5134,2.5141,2.5174,2.512,2.5121,2.5121,0,2.5014,2.5023,2.505,2.5057,2.5062,2.5075,2.5085,2.5096,2.5103,2.5103,2.5111,2.5105,2.5122,2.5106,2.513,2.5116,2.5122,2.5124,2.5125,2.5126,2.5107,2.5135,2.5184,2.5189,2.5128,2.5128,2.5127,0,2.504,2.5059,2.5079,2.5083,2.5091,2.5101,2.5105,2.5111,2.5119,2.5128,2.5133,2.5145,2.5151,2.516,2.5159,2.5147,2.5183,2.5167,2.5184,2.5184,2.519,2.5189,2.524,2.5196,2.5196,2.5196,2.5196,0,2.5073,2.509,2.5091,2.5102,2.5122,2.512,2.5139,2.5142,2.5149,2.5161,2.5155,2.5167,2.5165,2.5177,2.5176,2.5196,2.5199,2.52,2.5199,2.52,2.52,2.5203,2.5201,2.5197,2.5197,2.5197,2.5196,0,2.5104,2.5105,2.5126,2.5133,2.5136,2.515,2.5156,2.5168,2.517,2.5186,2.519,2.5192,2.5207,2.5207,2.5223,2.5222,2.5247,2.5244,2.5245,2.5244,2.5261,2.5259,2.5314,2.5322,2.5273,2.5274,2.5274,0,2.5125,2.5138,2.5147,2.5156,2.5161,2.5174,2.5182,2.5182,2.519,2.5202,2.5212,2.5227,2.5238,2.5262,2.5265,2.5278,2.5275,2.5294,2.5277,2.5278,2.5275,2.5274,2.5276,2.5297,2.5297,2.5298,2.5298,0,2.5161,2.5162,2.5174,2.5187,2.5197,2.5207,2.5217,2.5224,2.5225,2.5235,2.5251,2.526,2.5278,2.5292,2.5306,2.531,2.5304,2.5304,2.5308,2.5309,2.5308,2.5309,2.5253,2.5302,2.5302,2.5301,2.5301,2.5301,2.5188,2.52,2.5209,2.5223,2.5231,2.524,2.5252,2.5256,2.5269,2.5284,2.5283,2.5301,2.531,2.5327,2.5334,2.5348,2.5341,2.5347,2.5349,2.535,2.5352,2.5307,2.535,2.535,2.535,2.535,2.535,0,2.5224,2.523,2.5243,2.5258,2.5269,2.5265,2.5276,2.5286,2.5301,2.5311,2.5323,2.5342,2.5357,2.5362,2.5377,2.5387,2.5385,2.5391,2.539,2.5391,2.5357,2.5352,2.5393,2.5393,2.5393,2.5393,2.5393,2.5393,2.5244,2.5264,2.5267,2.5292,2.5298,2.5315,2.5322,2.5331,2.5339,2.5361,2.5373,2.5377,2.5386,2.5402,2.5416,2.5417,2.5423,2.543,2.543,2.5398,2.5393,2.5389,2.5384,2.5431,2.5431,2.5463,2.5463,2.5463]},{"header":{"parameterUnit":"m.s-1","parameterCategory":1,"la1":30.2991,"la2":30.254,"lo1":-89.0895,"lo2":-89.0444,"dx":0.0017,"dy":0.0017,"nx":28,"ny":28,"refTime":"2023-01-13T09:00:00:Z","depth":0,"parameterNumber":3,"parameterNumberName":"V-component_of_WINDS"},"data":[0,0,0,0,0,0,0,0,0,0,0,0,0,0,0,0,0,0,0,0,0,0,0,0,0,0,0,0,0,0,0,0,0,0,0,0,0,0,0,0,0,0,0,0,0,0,0,0,0,0,0,0,0,0,0,0,0,0,-8.4432,-8.4434,0,-8.4601,-8.4602,-8.4604,-8.453,-8.4526,-8.4522,-8.4518,-8.4683,-8.4691,-8.4699,0,0,0,0,0,0,0,0,0,0,0,0,0,-8.4042,-8.405,-8.4432,-8.4434,-8.4437,-8.46,-8.4603,-8.4605,-8.4531,-8.4526,-8.4521,-8.4516,-8.468,-8.469,-8.47,0,0,0,0,0,0,0,0,0,0,0,0,0,-8.4211,-8.4052,-8.4432,-8.442,-8.442,-8.46,-8.4603,-8.4605,-8.4532,-8.4526,-8.452,-8.4514,-8.4677,-8.4689,-8.4701,-8.49,0,0,-8.4739,-8.4744,0,0,0,0,0,0,0,0,-8.4201,-8.4225,-8.4419,-8.4421,-8.4422,-8.4538,-8.4525,-8.4704,-8.4534,-8.4489,-8.4518,-8.4511,-8.4639,-8.4654,-8.4699,-8.4908,-8.4915,-8.474,-8.4747,-8.4752,-8.4756,0,0,0,0,0,0,0,-8.419,-8.4217,-8.4499,-8.4422,-8.4424,-8.4404,-8.4421,-8.4559,-8.4596,-8.4493,-8.4488,-8.4509,-8.4639,-8.4687,-8.4702,-8.4917,-8.4739,-8.475,-8.4758,-8.4763,-8.53,-8.5306,0,0,0,0,0,0,-8.4179,-8.4208,-8.4493,-8.4504,-8.4294,-8.4416,-8.4435,-8.4507,-8.4595,-8.4602,-8.4514,-8.4505,-8.4669,-8.4688,-8.4708,-8.4948,-8.4752,-8.4764,-8.4771,-8.5293,-8.5301,-8.5309,0,0,0,0,0,0,-8.4171,-8.4205,-8.4486,-8.4355,-8.4389,-8.4429,-8.451,-8.4514,-8.4562,-8.4611,-8.4617,-8.4558,-8.4665,-8.469,-8.4854,-8.4953,-8.4769,-8.4781,-8.5285,-8.5296,-8.5305,-8.543,0,0,0,0,0,0,-8.416,-8.4203,-8.428,-8.4357,-8.4397,-8.4632,-8.4517,-8.4521,-8.4585,-8.4574,-8.4653,-8.466,-8.4662,-8.4836,-8.4866,-8.4967,-8.479,-8.5276,-8.529,-8.5302,-8.5417,-8.5443,-8.5466,0,0,0,0,0,-8.4146,-8.4306,-8.4284,-8.4319,-8.4494,-8.4638,-8.466,-8.4661,-8.4593,-8.467,-8.4702,-8.4658,-8.4937,-8.4853,-8.4887,-8.4992,-8.527,-8.5286,-8.5301,-8.5406,-8.5438,-8.5465,0,0,0,0,0,0,-8.4236,-8.4316,-8.4292,-8.4482,-8.4555,-8.4625,-8.4722,-8.4694,-8.4785,-8.4771,-8.4766,-8.4785,-8.4955,-8.4989,-8.4894,-8.5191,-8.5093,-8.5116,-8.5162,-8.5192,-8.5216,-8.5204,-8.4801,0,0,0,0,0,-8.4279,-8.4391,-8.4453,-8.4615,-8.4652,-8.4682,-8.4744,-8.4739,-8.4812,-8.4841,-8.4885,-8.4956,-8.5059,-8.5128,-8.5226,-8.5422,-8.5438,-8.5511,-8.5535,-8.5555,-8.5575,-8.5683,-8.5716,-8.536,-8.536,-8.5359,0,0,-8.4366,-8.4424,-8.4494,-8.4635,-8.4689,-8.4804,-8.4707,-8.4832,-8.4917,-8.4859,-8.5018,-8.5052,-8.5131,-8.5312,-8.5394,-8.5347,-8.5677,-8.5575,-8.559,-8.5599,-8.5702,-8.5736,-8.5766,-8.537,-8.5368,-8.5367,0,0,-8.4585,-8.464,-8.4782,-8.484,-8.4926,-8.4945,-8.4979,-8.5055,-8.5077,-8.5236,-8.5196,-8.5296,-8.5474,-8.5533,-8.5586,-8.5831,-8.5793,-8.5862,-8.5989,-8.6094,-8.6122,-8.6147,-8.6235,-8.6266,-8.5882,-8.5882,-8.5882,0,-8.4682,-8.4856,-8.4857,-8.4987,-8.505,-8.5007,-8.515,-8.5205,-8.5318,-8.5362,-8.5307,-8.5533,-8.5582,-8.5778,-8.5838,-8.5882,-8.592,-8.5853,-8.6118,-8.6143,-8.6166,-8.625,-8.6283,-8.589,-8.5889,-8.5888,-8.5887,0,-8.4972,-8.5093,-8.5197,-8.5311,-8.5386,-8.5521,-8.5542,-8.5617,-8.5606,-8.5631,-8.5794,-8.5852,-8.5963,-8.6008,-8.5997,-8.6203,-8.6171,-8.6118,-8.602,-8.6208,-8.6287,-8.6319,-8.5901,-8.5898,-8.5896,-8.5894,0,0,-8.525,-8.5366,-8.5404,-8.5456,-8.5549,-8.5642,-8.5775,-8.5887,-8.5952,-8.6031,-8.6142,-8.6296,-8.6249,-8.6309,-8.6305,-8.6397,-8.6589,-8.6332,-8.6334,-8.6379,-8.682,-8.686,-8.6897,-8.6565,-8.6571,-8.6576,-8.6813,0,-8.5477,-8.5714,-8.5721,-8.5937,-8.6049,-8.6011,-8.6128,-8.6197,-8.6224,-8.6321,-8.6349,-8.6459,-8.6387,-8.6424,-8.6514,-8.6546,-8.6677,-8.6529,-8.6668,-8.6673,-8.665,-8.6938,-8.698,-8.7201,-8.6844,-8.6849,-8.6853,0,-8.5772,-8.5866,-8.6095,-8.6174,-8.6221,-8.6326,-8.643,-8.6524,-8.6601,-8.6614,-8.6684,-8.6666,-8.6802,-8.67,-8.6886,-8.6786,-8.6842,-8.6867,-8.6876,-8.6889,-8.6774,-8.6959,-8.7272,-8.7305,-8.6901,-8.6898,-8.6894,0,-8.5954,-8.6136,-8.6297,-8.6343,-8.6439,-8.6514,-8.6557,-8.6629,-8.6696,-8.6786,-8.6829,-8.6932,-8.6989,-8.7068,-8.7079,-8.7004,-8.7266,-8.7165,-8.728,-8.728,-8.7337,-8.7333,-8.7664,-8.7373,-8.7373,-8.7372,-8.7371,0,-8.6207,-8.6348,-8.6381,-8.648,-8.6638,-8.6643,-8.6799,-8.6835,-8.69,-8.7005,-8.6977,-8.7075,-8.7083,-8.7184,-8.7192,-8.7346,-8.7371,-8.7384,-8.7385,-8.7388,-8.7386,-8.7425,-8.741,-8.7381,-8.7379,-8.7377,-8.7376,0,-8.6435,-8.6463,-8.6637,-8.6715,-8.6738,-8.6851,-8.6917,-8.7012,-8.7036,-8.7169,-8.7201,-8.7239,-8.7357,-8.7376,-8.7512,-8.7518,-8.7702,-8.7687,-8.7678,-8.7676,-8.779,-8.7779,-8.8157,-8.8207,-8.7884,-8.7887,-8.7889,0,-8.6595,-8.6704,-8.6796,-8.6866,-8.6914,-8.7026,-8.7095,-8.7105,-8.7178,-8.7276,-8.7359,-8.7474,-8.7567,-8.7756,-8.7795,-8.79,-8.7887,-8.8012,-8.7902,-8.7902,-8.789,-8.7883,-8.7895,-8.8033,-8.8037,-8.8039,-8.8042,0,-8.6876,-8.6885,-8.6988,-8.7097,-8.7182,-8.7267,-8.7347,-8.7405,-8.7425,-8.7509,-8.7631,-8.7703,-8.7845,-8.796,-8.8065,-8.8106,-8.8078,-8.8077,-8.8109,-8.8112,-8.8103,-8.8111,-8.7736,-8.8067,-8.8065,-8.8063,-8.8062,-8.8061,-8.7075,-8.7171,-8.7252,-8.7368,-8.7431,-8.7507,-8.7601,-8.7639,-8.7742,-8.786,-8.7859,-8.7993,-8.8068,-8.8207,-8.8256,-8.836,-8.8319,-8.8366,-8.8377,-8.8389,-8.8401,-8.8087,-8.8379,-8.8378,-8.8377,-8.8377,-8.8376,0,-8.7355,-8.7406,-8.7513,-8.7629,-8.7721,-8.7689,-8.7777,-8.7855,-8.7974,-8.8049,-8.8142,-8.8282,-8.8394,-8.8443,-8.8553,-8.8627,-8.8616,-8.8655,-8.865,-8.866,-8.843,-8.8392,-8.8662,-8.8662,-8.8662,-8.8662,-8.8662,-8.8662,-8.7512,-8.7673,-8.7693,-8.7885,-8.7933,-8.8067,-8.812,-8.8191,-8.8251,-8.841,-8.8504,-8.8537,-8.8601,-8.8716,-8.8817,-8.8828,-8.887,-8.8915,-8.8921,-8.8705,-8.8676,-8.8648,-8.8612,-8.8924,-8.8924,-8.9142,-8.9144,-8.9145]}]]